Theta_e
306 307 307 308 309 310 309 307 305 303 302 303 304 304 305 303 304 303 304 305 306 309 307 309 311 311 311 311 314 311 313 311 314 319 321 320 321 322 325 321 324 326 326 326 320 325 327 328 329 333 328 327 328 328
311 309 308 308 309 310 308 307 304 302 302 302 303 303 303 303 303 303 304 304 304 306 305 308 309 311 311 311 309 308 311 311 312 316 317 317 322 320 320 324 323 327 325 326 327 326 320 327 328 328 328 329 329 328
312 311 310 309 309 310 307 305 302 302 302 304 303 303 302 303 302 304 304 304 304 303 304 303 307 309 309 309 310 309 307 309 311 309 311 316 322 319 322 321 324 324 323 325 324 322 326 324 326 328 329 329 330 330
311 310 310 309 310 309 306 303 302 302 302 302 302 302 303 303 303 303 303 303 303 304 309 306 308 309 309 310 310 309 309 308 306 307 310 311 318 317 318 320 321 320 322 322 322 321 322 326 328 330 327 329 330 331
310 310 310 310 309 307 303 302 302 302 302 303 302 302 303 304 303 303 302 303 303 305 307 307 308 309 309 309 309 309 309 308 308 311 313 313 312 314 313 314 316 318 319 322 321 318 321 322 323 325 329 328 328 331
309 310 310 309 307 304 301 302 302 302 302 302 303 302 303 303 303 302 306 307 306 304 311 312 306 307 309 310 310 307 308 306 307 309 311 313 312 315 317 315 314 314 315 317 319 318 320 324 324 326 329 327 328 330
309 310 309 307 304 301 301 301 301 302 303 303 303 303 304 303 303 302 306 309 308 306 311 311 306 308 309 311 312 312 310 309 309 312 312 315 315 315 317 319 316 314 315 317 321 322 321 321 322 325 327 328 328 330
309 309 306 304 302 301 301 301 303 304 304 303 303 303 303 303 303 304 308 307 305 304 306 313 309 309 312 316 316 310 314 311 313 316 313 314 315 313 317 315 314 314 316 315 315 315 316 316 321 325 327 328 330 329
308 305 303 302 301 301 302 303 304 303 303 303 303 303 304 305 303 308 310 311 305 308 310 311 311 311 307 311 311 313 311 316 311 315 313 314 314 318 317 315 316 316 319 322 323 323 324 325 326 326 328 328 328 329
304 302 301 301 302 302 303 304 303 303 303 304 304 306 309 309 312 309 311 310 308 309 306 309 308 312 310 311 313 315 312 315 318 315 314 315 315 314 314 313 313 315 316 318 323 325 325 326 325 325 326 327 327 328
301 301 302 301 302 302 302 304 303 303 306 307 307 309 308 310 312 311 315 315 314 316 312 312 313 315 314 317 319 314 314 313 323 317 325 327 327 325 324 324 324 321 321 322 321 323 324 326 326 326 326 326 328 329
302 302 302 302 302 302 303 304 303 303 304 304 304 305 306 308 314 315 319 316 317 320 318 317 318 313 315 315 317 316 320 318 325 321 325 327 328 325 325 325 324 324 322 324 326 326 328 328 327 326 326 326 328 329
302 302 301 301 301 302 302 303 304 303 305 307 307 307 309 310 314 320 317 318 318 318 317 316 317 316 316 318 321 319 324 324 322 323 323 323 322 324 323 324 324 324 324 325 326 327 327 328 327 325 325 325 327 330
302 301 301 301 301 302 304 304 304 305 305 307 312 311 313 312 316 316 316 318 317 315 312 313 317 319 318 321 322 324 323 324 322 319 321 323 321 321 323 323 324 324 322 323 324 326 325 328 326 324 325 325 325 329
301 301 301 302 305 305 305 304 304 305 306 310 311 312 310 311 309 312 312 315 317 312 314 317 314 316 319 321 323 323 321 320 321 322 322 322 322 322 323 323 322 322 322 322 322 323 324 327 325 325 325 328 327 327
301 302 306 306 306 305 305 304 305 306 305 305 306 307 307 308 310 311 312 313 312 311 313 314 319 320 323 322 323 322 323 323 325 325 324 322 322 323 324 323 323 322 321 321 320 322 324 325 325 323 325 328 327 328
301 304 305 305 305 305 305 306 306 305 305 307 307 304 305 306 308 310 311 310 309 315 318 318 320 324 321 321 321 322 325 325 323 322 321 321 321 323 324 324 325 322 322 320 321 323 323 324 325 324 328 327 327 327
303 306 306 303 305 305 306 306 305 306 307 306 306 304 304 305 305 307 308 308 312 317 315 319 318 322 324 326 325 322 322 320 320 320 321 320 320 321 322 324 323 322 323 323 322 324 322 322 325 326 329 327 327 329
303 306 304 301 303 305 307 307 304 306 306 305 304 303 304 304 304 305 306 306 308 313 316 319 321 323 323 321 321 319 319 320 320 320 320 320 320 321 323 324 323 320 321 324 323 326 325 323 325 326 326 327 326 327
300 301 302 301 303 304 306 309 307 309 308 308 308 310 310 309 307 305 306 306 311 314 316 318 319 317 318 317 317 318 317 317 318 321 322 322 322 321 322 321 322 321 322 324 324 325 326 326 325 325 326 327 327 327
303 304 305 303 304 305 302 303 305 305 306 307 306 308 311 308 308 309 308 306 312 313 316 315 314 313 312 314 315 315 315 318 319 319 320 322 322 320 321 322 322 321 321 321 323 324 325 324 322 324 326 327 327 328
306 306 306 304 304 305 306 304 303 303 305 305 306 309 311 312 309 309 308 312 312 311 310 311 310 312 315 317 318 321 322 320 320 320 322 322 322 321 321 322 321 322 325 325 326 325 324 324 325 324 326 325 326 327
301 302 304 307 309 306 303 304 309 310 312 311 312 315 318 319 317 313 316 312 314 313 315 316 316 318 318 320 322 323 323 322 321 320 321 320 317 316 319 322 322 323 324 324 323 323 324 325 325 325 324 324 324 325
304 305 307 309 310 305 304 306 309 311 313 313 314 317 319 320 318 317 320 321 321 318 318 317 316 317 318 319 321 321 321 322 322 320 319 317 316 315 315 317 318 319 321 322 321 321 322 321 321 320 320 320 319 318
303 304 302 302 303 307 310 313 312 312 315 313 316 320 320 316 320 322 320 321 321 322 322 320 319 317 319 320 319 317 319 320 318 317 316 315 315 317 316 317 316 317 321 321 318 316 315 315 314 314 314 313 312 311
303 302 303 307 307 307 311 316 317 316 313 316 320 318 318 319 321 317 315 319 319 321 321 321 321 320 318 318 316 316 318 318 317 314 314 315 316 315 313 314 314 316 317 316 316 315 314 313 313 312 310 309 308 308
305 304 302 301 305 308 309 308 309 311 314 318 316 317 318 319 321 320 317 315 315 317 318 319 319 319 318 316 311 313 318 318 316 315 316 316 315 315 317 316 316 317 317 317 317 316 314 312 310 308 307 307 307 307
304 306 306 306 306 306 309 310 311 314 317 314 313 316 316 317 317 313 313 315 313 314 318 319 316 316 313 309 310 316 316 317 318 314 313 314 315 315 315 316 318 318 317 317 317 315 313 312 309 307 307 307 306 307
304 303 305 308 307 307 309 310 314 314 311 311 314 313 312 311 312 312 314 313 315 317 318 316 308 308 308 309 314 315 317 317 312 309 308 307 307 309 313 313 316 317 317 315 312 311 311 309 308 307 307 306 305 305
303 301 306 306 308 311 310 309 311 309 308 308 309 309 311 313 313 313 314 316 317 317 310 306 307 307 305 307 306 307 310 312 312 309 306 306 306 310 312 311 312 312 311 309 308 307 307 306 305 305 305 305 305 305
302 302 305 306 307 306 308 305 306 306 307 308 308 311 314 314 314 316 317 317 318 313 305 305 305 306 306 306 305 305 305 307 308 308 308 308 308 309 309 309 309 309 309 308 308 307 306 306 306 306 306 306 306 306
305 306 307 309 308 305 305 306 307 308 308 311 313 314 315 318 319 316 318 318 319 315 309 303 303 303 305 305 305 306 307 307 307 307 307 308 308 308 308 308 308 308 308 308 307 307 307 307 306 304 303 303 303 302
307 307 307 307 308 310 309 310 314 314 315 316 316 317 317 318 318 315 318 318 318 317 304 303 304 304 304 304 305 306 306 306 306 306 307 307 307 307 307 306 306 306 306 305 305 305 306 305 303 303 302 301 301 301
Wind_Speed
18 18 17 16 15 14 12 11 11 11 11 10 10 10 10 10 9 12 5 3 4 2 6 5 4 4 0 1 3 3 4 2 3 2 2 3 3 3 0 3 5 6 5 4 2 2 6 3 5 3 2 4 6 6
20 18 17 15 13 12 10 10 10 10 11 11 11 9 9 9 8 9 3 8 10 5 6 8 16 18 14 9 4 2 2 2 4 2 1 0 2 1 2 3 1 2 6 4 7 5 2 2 5 3 2 3 5 5
18 16 14 12 11 11 9 9 8 9 11 11 11 9 9 9 8 6 8 10 5 2 5 3 5 4 8 28 27 4 3 5 3 4 3 1 3 3 2 4 2 2 2 2 2 3 3 8 4 5 4 5 8 10
12 9 9 9 9 8 7 6 6 8 9 10 10 9 9 10 9 10 11 11 4 4 3 6 6 12 8 11 23 31 8 2 1 2 2 2 2 4 3 4 4 4 4 3 4 7 8 5 3 4 4 6 6 6
8 9 7 8 8 7 6 5 6 8 9 11 11 11 12 11 13 15 18 16 14 3 3 5 18 6 5 10 19 23 20 6 0 2 2 4 2 1 2 1 5 5 6 4 9 8 7 8 6 4 5 9 7 5
5 5 7 8 6 5 5 6 7 8 10 12 12 10 11 12 12 8 2 2 6 10 3 4 5 5 10 10 13 9 12 3 3 4 4 3 4 4 3 4 5 8 6 12 12 7 12 8 8 7 7 9 8 7
5 7 7 5 5 5 6 8 9 11 12 12 12 10 11 12 10 3 3 2 9 7 2 4 5 4 8 4 1 2 7 3 4 3 3 3 3 5 3 11 6 8 10 9 9 4 6 7 7 3 6 8 8 11
6 6 5 4 4 5 7 8 10 12 13 13 12 11 11 12 13 9 2 9 15 4 1 2 4 5 4 3 3 1 1 0 3 2 1 2 1 2 5 8 6 5 7 8 12 10 15 14 5 7 5 5 6 8
5 4 4 4 4 5 6 9 12 12 11 10 9 11 5 2 2 4 5 3 12 1 2 2 2 4 5 2 2 3 2 2 1 2 3 4 3 5 8 6 6 6 4 6 5 5 6 7 9 8 7 9 9 9
5 4 3 3 3 4 7 9 10 11 11 8 4 2 1 1 7 4 3 1 0 1 1 2 2 3 0 1 3 2 1 2 2 4 1 3 4 6 7 6 7 9 9 7 7 10 6 6 6 8 11 11 10 8
5 3 3 3 3 5 7 9 8 9 3 2 3 1 5 2 2 2 2 2 2 2 3 3 4 3 2 3 3 1 2 2 2 3 2 3 2 2 6 8 8 7 7 7 8 11 11 12 10 7 6 9 7 7
4 3 4 3 5 6 6 7 7 4 3 6 7 7 4 1 2 2 2 1 3 3 3 3 4 5 3 2 2 2 2 0 3 3 3 3 1 3 10 14 13 8 7 9 8 10 11 11 11 9 6 6 8 13
4 4 4 5 7 6 7 6 6 6 7 1 1 2 1 1 1 3 3 2 2 3 3 2 3 2 2 2 2 2 2 2 3 2 2 3 9 8 11 11 12 10 9 8 10 8 11 10 11 8 6 8 10 12
4 4 5 6 7 9 7 4 3 2 2 1 1 3 3 3 4 3 2 2 3 3 3 3 3 2 1 1 2 3 2 2 1 2 3 7 13 14 12 11 10 11 10 9 9 9 8 5 4 7 7 8 10 8
4 4 5 5 1 2 2 2 1 1 1 2 1 3 4 4 3 3 3 2 2 1 2 2 2 0 2 2 2 2 4 3 2 3 3 8 13 12 11 11 10 10 9 8 5 6 7 4 5 6 9 7 11 14
2 2 1 2 4 5 2 1 1 1 1 2 3 3 3 1 3 3 2 3 2 1 0 1 1 2 2 2 3 1 1 3 3 4 7 8 13 12 11 9 10 9 8 7 6 5 7 4 5 6 7 10 8 13
1 2 1 4 4 2 1 2 2 2 2 3 4 3 3 4 5 3 2 3 1 2 2 1 2 2 1 1 3 2 3 5 6 9 8 7 9 14 14 13 9 8 7 5 6 7 7 9 9 5 3 8 6 9
3 4 1 4 3 1 1 2 2 2 4 4 2 3 3 3 3 4 3 2 1 1 1 2 1 1 2 2 2 3 4 7 6 6 7 9 6 10 10 9 7 8 7 9 9 9 5 5 4 3 7 3 12 9
5 5 3 4 4 2 2 3 3 2 5 3 3 3 3 4 4 4 3 3 4 3 1 1 2 2 3 3 4 6 5 4 6 10 8 8 7 8 8 9 7 5 8 9 8 6 6 3 2 3 5 11 7 8
5 6 6 5 2 1 2 2 4 3 3 3 3 3 3 3 3 2 2 3 3 1 1 2 4 3 4 4 4 6 7 4 4 6 6 5 9 11 7 6 5 7 8 12 12 14 9 8 8 7 8 7 6 4
1 1 1 4 2 2 2 3 3 3 3 2 2 2 3 1 2 2 2 1 2 3 3 4 4 5 5 10 14 10 6 4 3 3 3 4 8 10 9 11 11 9 4 4 4 6 10 8 12 11 9 13 11 9
2 2 1 3 1 2 3 6 3 3 2 3 3 2 3 2 2 2 1 1 2 3 2 2 3 3 4 5 5 7 7 5 4 6 7 7 5 6 5 9 7 4 6 9 10 8 10 12 13 14 15 15 15 15
1 2 2 4 3 2 6 1 2 3 3 3 2 2 2 1 2 2 1 2 2 2 3 3 7 9 5 9 6 4 8 9 4 6 7 8 9 13 12 14 13 8 5 13 14 14 16 18 19 18 18 18 18 19
2 1 1 2 3 4 2 3 3 3 2 2 2 2 4 2 3 1 1 1 1 2 3 4 5 2 2 3 3 3 8 6 6 11 14 10 5 10 15 16 19 18 15 15 17 18 19 19 20 19 19 19 20 21
2 2 3 3 2 1 3 3 2 1 3 2 2 2 0 3 2 2 3 3 3 3 4 5 3 4 3 2 2 5 6 5 5 4 13 11 13 18 16 19 23 21 18 24 19 20 21 23 24 23 21 21 22 22
1 3 6 3 2 3 2 2 3 2 2 2 1 2 2 2 2 2 2 3 3 3 4 3 4 5 3 4 2 2 5 5 12 9 9 13 12 11 4 4 4 13 15 21 25 20 19 20 21 22 22 22 23 23
3 4 3 3 2 3 3 3 2 1 2 2 2 3 3 2 2 2 1 0 2 7 6 9 12 8 4 8 8 3 6 10 14 12 13 15 15 13 12 8 5 8 10 15 19 22 23 23 23 23 23 24 23 23
4 2 4 1 2 2 2 2 2 2 0 2 1 2 1 1 2 2 3 5 12 10 8 13 10 8 7 4 2 12 17 16 15 15 18 18 15 14 12 10 8 9 11 13 16 18 20 21 22 23 23 22 19 18
3 3 1 3 3 3 4 3 2 0 0 1 1 2 2 3 2 2 5 8 5 5 9 11 5 6 10 12 12 12 14 14 14 9 8 4 4 12 9 9 9 10 12 15 16 17 20 22 21 20 18 17 16 17
4 3 2 2 2 2 2 3 2 1 2 2 1 2 3 3 6 6 7 6 2 3 5 5 8 9 6 10 14 15 13 11 13 14 4 3 4 9 10 10 13 14 18 22 24 23 20 19 18 19 18 16 14 12
1 1 2 2 2 2 2 2 3 2 2 2 3 3 3 3 4 3 7 5 1 3 3 4 5 6 7 8 8 11 7 10 13 14 16 15 14 14 13 12 12 14 16 19 18 17 17 17 14 12 11 9 6 5
2 3 3 2 3 3 1 1 1 2 2 1 2 2 2 2 2 2 9 10 6 2 2 4 5 4 7 9 11 12 13 13 13 14 14 14 14 14 15 15 14 13 13 12 11 11 10 10 8 8 7 6 8 8
1 1 1 1 2 2 2 2 2 2 2 2 2 2 2 2 2 2 9 10 2 1 9 11 13 14 14 14 16 16 16 15 14 13 12 12 11 11 11 11 12 12 11 10 9 8 7 7 7 7 8 7 7 7
Wind_Direction
279 280 280 280 282 287 288 298 308 314 320 324 328 335 341 342 343 352 315 45 26 295 275 224 233 202 143 154 189 283 353 324 346 60 163 230 208 240 244 220 181 185 178 211 121 178 260 337 352 183 248 300 282 304
276 272 270 271 275 273 282 296 307 313 320 322 319 318 327 334 339 339 322 332 323 220 253 274 266 247 226 213 144 296 225 247 235 92 239 235 286 337 163 247 339 239 192 195 186 219 236 298 253 263 199 273 285 270
275 268 265 258 261 260 277 294 305 315 323 326 323 320 324 331 333 316 303 320 323 293 293 328 239 287 260 230 229 177 258 220 244 190 169 216 253 137 201 241 252 255 163 202 22 284 255 300 234 234 216 249 282 300
270 252 245 245 240 255 273 285 301 314 324 328 330 330 331 330 327 311 296 294 282 258 288 280 309 292 295 213 210 214 239 17 52 70 166 182 222 182 218 235 188 213 152 212 253 289 304 276 241 201 257 257 267 285
260 250 220 225 236 250 263 274 295 311 318 318 316 317 317 317 316 308 298 281 247 185 279 284 307 281 261 247 233 223 222 219 91 291 197 221 216 180 228 67 234 182 206 211 255 230 218 258 273 278 273 296 290 306
199 205 220 225 242 255 260 282 296 305 313 315 313 312 316 315 314 325 301 65 162 186 287 305 292 286 300 283 241 195 190 153 194 188 223 236 225 159 230 234 245 226 223 225 249 236 225 243 278 255 243 267 274 277
205 214 220 232 241 254 277 295 303 308 312 311 310 307 305 305 304 234 260 147 183 343 287 303 314 283 308 308 12 97 159 194 182 224 222 217 235 164 220 260 244 234 235 247 230 225 278 249 250 277 208 266 271 271
202 207 226 231 251 276 291 301 310 313 313 308 307 304 299 294 288 288 316 227 226 273 333 289 280 324 353 316 324 44 153 338 232 246 23 198 7 181 257 253 271 264 271 266 250 219 245 265 285 255 229 259 271 274
204 209 215 240 266 289 305 314 319 320 319 315 311 306 294 233 242 315 340 231 181 220 289 308 282 278 349 309 274 335 60 295 286 229 237 133 201 221 236 241 259 260 242 267 284 272 247 229 251 254 220 239 246 259
193 202 227 260 280 306 319 324 325 326 322 311 315 311 276 261 284 202 277 81 124 241 126 244 195 270 301 348 292 307 63 252 294 248 126 191 251 252 272 259 254 272 272 272 276 284 282 262 243 247 231 237 230 229
195 214 249 273 291 313 324 331 333 340 353 2 1 272 310 290 240 227 234 200 166 236 198 235 219 246 237 223 267 164 273 266 277 273 243 224 251 280 339 301 288 282 268 258 240 257 261 259 262 254 242 228 222 231
199 235 275 270 296 311 319 331 339 355 345 324 294 302 301 313 219 254 221 162 215 261 199 217 229 202 262 185 233 235 252 154 252 332 295 269 27 317 320 312 306 291 280 271 257 258 269 262 238 233 215 207 213 226
228 261 273 282 297 300 306 311 318 318 324 312 237 255 220 234 316 231 200 251 257 216 242 248 296 236 314 224 262 284 278 278 322 227 255 275 286 302 305 306 303 299 288 281 283 280 286 266 222 187 183 200 212 219
252 280 290 291 297 298 296 287 304 317 307 245 248 281 226 235 243 208 218 246 270 228 263 226 255 245 286 267 262 278 268 213 10 299 296 292 287 293 300 300 303 298 297 290 292 293 295 268 240 198 207 182 182 217
271 289 300 307 17 15 353 317 301 279 320 269 270 252 227 260 275 284 283 295 259 220 243 286 306 73 280 290 220 289 354 329 242 240 235 285 300 308 306 304 301 300 301 302 292 292 292 283 225 220 208 185 184 199
272 331 37 320 301 298 290 240 222 234 276 241 241 272 259 347 298 311 293 293 266 256 96 165 316 302 300 3 346 306 198 244 266 276 297 306 309 312 310 305 298 296 289 291 291 288 289 256 228 241 260 281 274 194
264 162 24 0 348 347 177 189 177 227 235 235 246 222 237 252 248 252 264 265 15 347 303 15 340 333 284 351 300 262 271 296 288 300 301 277 273 295 309 312 316 314 312 315 315 321 308 281 214 191 248 311 273 182
190 185 271 352 353 310 257 221 218 226 253 235 233 247 204 224 247 266 249 252 136 246 141 277 189 311 290 299 249 241 260 295 280 273 300 303 282 273 282 294 311 321 324 325 338 344 353 147 138 126 116 88 98 152
205 220 283 330 340 304 258 215 189 249 245 250 252 233 228 244 235 249 243 256 231 229 250 207 261 210 236 234 252 277 289 272 307 313 305 305 313 311 311 315 309 327 338 341 357 3 29 110 55 99 74 32 54 46
263 255 265 267 284 328 273 222 201 232 267 254 272 259 238 230 254 260 250 210 173 161 241 223 225 226 219 256 240 272 287 294 303 313 319 336 341 339 347 346 349 6 360 10 19 19 27 65 35 22 28 50 99 136
230 176 180 174 209 232 241 304 274 226 276 269 271 272 264 316 289 274 277 89 112 203 228 223 239 256 271 280 287 283 290 299 286 254 290 315 327 327 338 6 31 41 30 347 4 2 16 28 31 47 47 41 50 60
113 152 163 190 237 220 246 226 223 271 271 257 306 220 274 269 269 245 189 154 228 253 222 271 284 296 312 322 310 314 317 326 349 353 7 335 355 359 360 10 21 17 30 16 19 37 38 39 59 63 62 61 67 71
281 186 219 206 218 224 264 203 247 227 248 258 292 284 257 269 237 147 259 233 271 251 274 269 277 282 260 307 346 31 31 46 32 12 3 7 32 32 33 36 35 37 41 34 45 51 52 59 59 62 65 63 65 65
188 244 244 241 211 258 293 264 226 261 269 272 248 265 331 307 320 37 267 202 330 315 327 318 320 346 4 6 20 3 24 52 34 37 36 34 36 23 44 45 50 49 58 67 59 59 58 58 63 62 63 65 65 67
102 252 115 284 284 276 257 257 247 246 254 268 302 268 312 346 320 347 2 339 331 351 347 336 357 26 46 344 1 1 29 50 68 62 31 47 65 57 47 56 52 51 74 74 62 64 61 65 66 64 64 67 67 62
212 216 170 227 226 191 234 333 279 298 307 293 288 11 17 300 342 70 277 311 329 323 334 350 349 342 3 22 339 343 355 64 83 69 42 58 71 83 67 42 24 31 76 93 93 81 71 70 72 70 65 62 70 78
243 259 234 230 248 286 301 275 256 204 272 323 20 356 348 306 308 185 237 347 295 315 330 315 311 305 304 328 345 38 104 114 98 98 90 74 67 66 70 78 66 59 96 102 100 99 93 88 86 84 82 78 80 83
241 248 204 239 232 212 237 273 263 238 316 353 4 16 312 239 270 261 227 272 322 331 325 320 329 300 307 297 315 129 120 115 108 100 86 76 74 70 67 70 98 104 101 107 113 112 107 103 100 96 91 88 86 83
258 253 212 263 239 210 218 211 268 323 218 119 123 271 264 242 246 269 303 305 312 317 323 342 34 102 99 100 109 118 133 136 111 85 72 43 24 40 68 68 96 104 111 113 106 101 100 97 94 91 88 88 89 91
257 177 210 249 222 237 259 189 258 267 243 218 211 310 287 269 276 286 280 273 258 338 354 77 53 60 63 93 92 76 87 118 135 126 126 124 98 82 83 96 97 110 117 114 112 108 100 94 94 94 94 92 86 79
213 143 224 211 246 252 254 322 297 264 247 237 203 214 252 292 311 283 218 213 240 30 103 78 66 64 91 108 110 106 81 95 114 119 122 120 113 104 103 104 108 116 120 120 119 110 104 98 95 87 75 67 59 51
190 206 185 232 274 287 295 228 290 290 283 269 251 200 254 240 274 210 193 179 181 149 180 140 124 106 120 105 104 107 114 122 131 136 136 132 127 122 117 116 115 115 115 116 117 117 114 105 89 72 73 70 70 71
143 137 165 281 309 284 230 198 221 262 237 248 247 211 229 235 116 228 179 199 244 185 141 123 117 117 116 113 110 110 111 114 114 117 126 130 128 131 132 131 128 124 120 114 112 116 116 115 105 78 67 76 64 52